Starlink 3563

operational
NORAD ID: 51858 Int'l Des: 2022-022 Owner: SPXS Country: US Constellation: starlink
LEOCIRCULAR

Über Starlink 3563

Beschreibung wird geladen...

Live-Position

3D-Globus wird geladen...

Nächste Überflüge

Höhenverlauf

Altitude vs Time

uPlot chart will show altitude changes over time

Zweizeiliger Elementsatz

1 51858U 22022G 25304.80231285 .00000678 00000-0 60690-4 0 9994
2 51858 53.2161 237.7205 0001383 90.1591 269.9559 15.08830114203565
Epoch: 31. Okt. 2025 • Age: 9 hours

Aktueller Status

Höhe 539.7 km
Geschwindigkeit 7.59 km/s
Subsatellitenpunkt 9.00°N, 50.6°W
Startdatum 3. März 2022
Alter 3.6 years
Typ internet

Technische Details

Klassifizierung Payload
Masse 297.00 kg
Trockenmasse 275.00 kg
Gesamtmasse 297.00 kg
Länge 0.20 m
Durchmesser 2.80 m
Spannweite 9.00 m
Form Box + pan
Hersteller SPXS
Bus-Typ Starlink
Phasenstatus In Orbit
Besitzer/Staat SPXS/US

Große Konstellationen

Loading constellations...